When you browse on this site, cookies collect data to enhance your experience and personalize the content and advertising you see.
Visit our Privacy Policy to learn more. By continuing to use the site, you agree to this use of cookies and data.

Stündliche Wetter Ordino

Heute, 11 Juli, Samstag

Zeit Temperatur Niederschläge Wind Luftdruck Luftfeuchtigkeit
00:00 +13°C° 0 mm 1 m/S 635 mmHg 92%
01:00 +13°C° 0 mm 1 m/S 635 mmHg 92%
02:00 +13°C° 0 mm 1 m/S 635 mmHg 92%
03:00 +12°C° 0 mm 1 m/S 635 mmHg 92%
04:00 +13°C° 0 mm 1 m/S 635 mmHg 91%
05:00 +14°C° 0 mm 1 m/S 636 mmHg 90%
06:00 +13°C° 0 mm 0 m/S 637 mmHg 88%
07:00 +16°C° 0 mm 1 m/S 637 mmHg 82%
08:00 +18°C° 0 mm 1 m/S 638 mmHg 76%
09:00 +20°C° 0 mm 1 m/S 638 mmHg 70%
10:00 +19°C° 0.1 mm 2 m/S 638 mmHg 69%
11:00 +20°C° 0.1 mm 2 m/S 638 mmHg 68%
12:00 +20°C° 0.1 mm 2 m/S 638 mmHg 66%
13:00 +20°C° 0.7 mm 2 m/S 638 mmHg 69%
14:00 +21°C° 0.7 mm 1 m/S 638 mmHg 72%
15:00 +20°C° 0.7 mm 1 m/S 637 mmHg 76%
16:00 +20°C° 0.6 mm 1 m/S 637 mmHg 79%
17:00 +19°C° 0.6 mm 1 m/S 637 mmHg 83%
18:00 +18°C° 0.6 mm 1 m/S 636 mmHg 86%
19:00 +18°C° 0.1 mm 1 m/S 636 mmHg 88%
20:00 +15°C° 0.1 mm 0 m/S 636 mmHg 91%
21:00 +14°C° 0.1 mm 0 m/S 636 mmHg 93%
22:00 +14°C° 0 mm 1 m/S 636 mmHg 93%
23:00 +14°C° 0 mm 1 m/S 636 mmHg 93%

Morgen, 12 Juli, Sonntag

Zeit Temperatur Niederschläge Wind Luftdruck Luftfeuchtigkeit
00:00 +14°C° 0 mm 1 m/S 636 mmHg 93%
01:00 +14°C° 0 mm 1 m/S 636 mmHg 93%
02:00 +13°C° 0 mm 1 m/S 635 mmHg 93%
03:00 +13°C° 0 mm 1 m/S 635 mmHg 93%
04:00 +14°C° 0 mm 1 m/S 636 mmHg 91%
05:00 +15°C° 0 mm 1 m/S 636 mmHg 89%
06:00 +16°C° 0 mm 1 m/S 637 mmHg 87%
07:00 +18°C° 0.2 mm 1 m/S 637 mmHg 82%
08:00 +20°C° 0.2 mm 1 m/S 638 mmHg 76%
09:00 +22°C° 0.2 mm 1 m/S 639 mmHg 70%
10:00 +22°C° 1.3 mm 1 m/S 639 mmHg 69%
11:00 +21°C° 1.3 mm 2 m/S 639 mmHg 68%
12:00 +23°C° 1.3 mm 2 m/S 639 mmHg 68%
13:00 +23°C° 2 mm 1 m/S 639 mmHg 68%
14:00 +23°C° 2 mm 1 m/S 638 mmHg 68%
15:00 +22°C° 2 mm 1 m/S 638 mmHg 68%
16:00 +22°C° 1.2 mm 1 m/S 638 mmHg 73%
17:00 +21°C° 1.2 mm 1 m/S 637 mmHg 77%
18:00 +20°C° 1.2 mm 1 m/S 637 mmHg 82%
19:00 +19°C° 0.8 mm 1 m/S 637 mmHg 85%
20:00 +16°C° 0.8 mm 1 m/S 637 mmHg 88%
21:00 +15°C° 0.8 mm 1 m/S 636 mmHg 91%
22:00 +15°C° 0.4 mm 1 m/S 636 mmHg 90%
23:00 +15°C° 0.4 mm 1 m/S 636 mmHg 90%

übermorgen, 13 Juli, Montag

Zeit Temperatur Niederschläge Wind Luftdruck Luftfeuchtigkeit
00:00 +14°C° 0.4 mm 1 m/S 636 mmHg 89%
01:00 +14°C° 0.3 mm 1 m/S 636 mmHg 89%
02:00 +14°C° 0.3 mm 1 m/S 636 mmHg 88%
03:00 +13°C° 0.3 mm 0 m/S 636 mmHg 88%
04:00 +14°C° 0.2 mm 0 m/S 636 mmHg 88%
05:00 +14°C° 0.2 mm 0 m/S 636 mmHg 89%
06:00 +14°C° 0.2 mm 0 m/S 637 mmHg 89%
07:00 +16°C° 0.4 mm 1 m/S 637 mmHg 85%
08:00 +19°C° 0.4 mm 1 m/S 638 mmHg 81%
09:00 +20°C° 0.4 mm 1 m/S 638 mmHg 77%
10:00 +20°C° 1.2 mm 1 m/S 638 mmHg 77%
11:00 +20°C° 1.2 mm 1 m/S 638 mmHg 77%
12:00 +21°C° 1.2 mm 1 m/S 638 mmHg 76%
13:00 +20°C° 1.7 mm 1 m/S 637 mmHg 78%
14:00 +20°C° 1.7 mm 1 m/S 637 mmHg 80%
15:00 +20°C° 1.7 mm 1 m/S 636 mmHg 82%
16:00 +19°C° 1.4 mm 1 m/S 636 mmHg 85%
17:00 +18°C° 1.4 mm 1 m/S 636 mmHg 88%
18:00 +16°C° 1.4 mm 1 m/S 635 mmHg 91%
19:00 +15°C° 0.5 mm 1 m/S 635 mmHg 93%
20:00 +14°C° 0.5 mm 1 m/S 635 mmHg 94%
21:00 +14°C° 0.5 mm 1 m/S 636 mmHg 95%
22:00 +13°C° 0 mm 1 m/S 635 mmHg 95%
23:00 +13°C° 0 mm 1 m/S 635 mmHg 95%

14 Juli, Dienstag

Zeit Temperatur Niederschläge Wind Luftdruck Luftfeuchtigkeit
00:00 +12°C° 0 mm 1 m/S 635 mmHg 95%
01:00 +12°C° 0 mm 1 m/S 635 mmHg 95%
02:00 +12°C° 0 mm 1 m/S 634 mmHg 95%
03:00 +11°C° 0 mm 1 m/S 634 mmHg 95%
04:00 +12°C° 0 mm 1 m/S 634 mmHg 94%
05:00 +12°C° 0 mm 1 m/S 635 mmHg 94%
06:00 +12°C° 0 mm 1 m/S 635 mmHg 93%
07:00 +13°C° 0 mm 1 m/S 635 mmHg 89%
08:00 +14°C° 0 mm 1 m/S 635 mmHg 85%
09:00 +15°C° 0 mm 1 m/S 636 mmHg 82%
10:00 +15°C° 0.1 mm 1 m/S 636 mmHg 80%
11:00 +15°C° 0.1 mm 1 m/S 636 mmHg 78%
12:00 +16°C° 0.1 mm 1 m/S 635 mmHg 77%
13:00 +16°C° 0.4 mm 2 m/S 635 mmHg 77%
14:00 +16°C° 0.4 mm 2 m/S 635 mmHg 77%
15:00 +16°C° 0.4 mm 2 m/S 635 mmHg 77%
16:00 +16°C° 0.4 mm 2 m/S 635 mmHg 80%
17:00 +15°C° 0.4 mm 2 m/S 634 mmHg 82%
18:00 +14°C° 0.4 mm 2 m/S 634 mmHg 85%
19:00 +13°C° 0.1 mm 2 m/S 634 mmHg 86%
20:00 +13°C° 0.1 mm 2 m/S 634 mmHg 88%
21:00 +12°C° 0.1 mm 2 m/S 635 mmHg 90%
22:00 +10°C° 0 mm 2 m/S 635 mmHg 91%
23:00 +10°C° 0 mm 2 m/S 635 mmHg 92%

15 Juli, Mittwoch

Zeit Temperatur Niederschläge Wind Luftdruck Luftfeuchtigkeit
00:00 +10°C° 0 mm 2 m/S 634 mmHg 93%
01:00 +9°C° 0 mm 2 m/S 634 mmHg 93%
02:00 +9°C° 0 mm 2 m/S 634 mmHg 94%
03:00 +9°C° 0 mm 2 m/S 634 mmHg 94%
04:00 +9°C° 0 mm 2 m/S 634 mmHg 93%
05:00 +9°C° 0 mm 2 m/S 635 mmHg 91%
06:00 +9°C° 0 mm 2 m/S 635 mmHg 89%
07:00 +13°C° 0 mm 2 m/S 636 mmHg 79%
08:00 +15°C° 0 mm 1 m/S 637 mmHg 68%
09:00 +18°C° 0 mm 1 m/S 638 mmHg 58%
10:00 +18°C° 0 mm 2 m/S 638 mmHg 56%
11:00 +19°C° 0 mm 2 m/S 638 mmHg 55%
12:00 +20°C° 0 mm 2 m/S 638 mmHg 53%
13:00 +20°C° 0 mm 2 m/S 638 mmHg 56%
14:00 +20°C° 0 mm 2 m/S 638 mmHg 58%
15:00 +19°C° 0 mm 2 m/S 638 mmHg 61%
16:00 +18°C° 0.1 mm 2 m/S 637 mmHg 68%
17:00 +17°C° 0.1 mm 2 m/S 637 mmHg 75%
18:00 +16°C° 0.1 mm 2 m/S 637 mmHg 81%
19:00 +15°C° 0 mm 2 m/S 637 mmHg 85%
20:00 +13°C° 0 mm 1 m/S 636 mmHg 89%
21:00 +12°C° 0 mm 1 m/S 636 mmHg 93%
22:00 +12°C° 0 mm 1 m/S 636 mmHg 92%
23:00 +11°C° 0 mm 1 m/S 636 mmHg 92%

16 Juli, Donnerstag

Zeit Temperatur Niederschläge Wind Luftdruck Luftfeuchtigkeit
00:00 +11°C° 0 mm 1 m/S 636 mmHg 91%
01:00 +11°C° 0 mm 1 m/S 636 mmHg 90%
02:00 +11°C° 0 mm 1 m/S 636 mmHg 88%
03:00 +11°C° 0 mm 1 m/S 636 mmHg 87%
04:00 +12°C° 0 mm 1 m/S 636 mmHg 84%
05:00 +12°C° 0 mm 1 m/S 637 mmHg 82%
06:00 +13°C° 0 mm 1 m/S 637 mmHg 79%
07:00 +15°C° 0 mm 1 m/S 638 mmHg 72%
08:00 +19°C° 0 mm 1 m/S 639 mmHg 64%
09:00 +21°C° 0 mm 1 m/S 640 mmHg 57%
10:00 +21°C° 0 mm 1 m/S 640 mmHg 54%
11:00 +21°C° 0 mm 2 m/S 640 mmHg 52%
12:00 +23°C° 0 mm 2 m/S 640 mmHg 50%
13:00 +23°C° 0 mm 2 m/S 639 mmHg 52%
14:00 +23°C° 0 mm 2 m/S 639 mmHg 55%
15:00 +23°C° 0 mm 2 m/S 638 mmHg 57%
16:00 +20°C° 0.1 mm 2 m/S 638 mmHg 64%
17:00 +19°C° 0.1 mm 2 m/S 637 mmHg 70%
18:00 +18°C° 0.1 mm 2 m/S 637 mmHg 77%
19:00 +16°C° 0 mm 2 m/S 636 mmHg 81%
20:00 +14°C° 0 mm 2 m/S 636 mmHg 85%
21:00 +13°C° 0 mm 2 m/S 636 mmHg 88%
22:00 +12°C° 0 mm 2 m/S 636 mmHg 88%
23:00 +12°C° 0 mm 2 m/S 636 mmHg 87%
Mehr zeigen